Regional Weather Roundup
Issued by NWS

Home | Current Version | Previous Version | Graphics & Text | Print | Product List | Glossary On
Versions: 1 2 3 4 5 6 7 8 9 10 11 12 13 14 15 16 17 18 19 20 21 22 23 24 25 26 27 28 29 30 31 32 33 34 35 36 37 38 39 40 41 42 43 44 45 46 47 48 49 50
000
ASUS43 KLSX 211607
RWRMO

WEATHER SUMMARY FOR MISSOURI
NATIONAL WEATHER SERVICE SPRINGFIELD MO
1000 AM CST SUN DEC 21 2014

NOTE: "FAIR" INDICATES FEW OR NO CLOUDS BELOW 12,000 FEET WITH NO
       SIGNIFICANT WEATHER AND/OR OBSTRUCTIONS TO VISIBILITY.
       CURRENT SKY AND/OR WEATHER CONDITIONS ARE NOT AVAILABLE FOR
       CHILLICOTHE AND FARMINGTON.

MOZ001>031-035>038-043-044-053-054-211700-
...NORTHERN AND WESTERN MISSOURI...

CITY           SKY/WX    TMP DP  RH WIND       PRES   REMARKS
KANSAS CTY INT DRIZZLE   40  37  89 S13       30.00S
KANSAS C DTWN  CLOUDY    42  37  82 S16       30.01F
LEE`S SUMMIT   CLOUDY    41  39  93 S12G17    30.02F
ST JOSEPH      CLOUDY    40  36  86 S13       29.99F
CHILLICOTHE      N/A     42  38  85 S9        30.04F
KIRKSVILLE     CLOUDY    40  37  89 S12       30.06F

$$
MOZ066>068-077>081-088>096-101>105-211700-
...SOUTHWEST MISSOURI...

CITY           SKY/WX    TMP DP  RH WIND       PRES   REMARKS
SPRINGFIELD    CLOUDY    41  38  89 S13       30.09S FOG
JOPLIN         LGT RAIN  43  41  93 S8          N/A  FOG

$$
MOZ032>034-039>042-045>050-055>058-069>072-211700-
...CENTRAL MISSOURI...

CITY           SKY/WX    TMP DP  RH WIND       PRES   REMARKS
COLUMBIA       CLOUDY    42  36  79 S13       30.11S
JEFFERSON CITY CLOUDY    43  36  76 SE10      30.13F
ROLLA          CLOUDY    39  34  82 SE12      30.12F
SEDALIA        CLOUDY    43  39  86 S13       30.08F
WHITEMAN AFB   CLOUDY    41  40  95 S14       30.06F
OSAGE BEACH    CLOUDY    43  36  75 S8        30.12S

$$
MOZ051-052-059>065-211700-
...EAST CENTRAL MISSOURI...

CITY           SKY/WX    TMP DP  RH WIND       PRES   REMARKS
ST LOUIS INTL  CLOUDY    41  32  70 SE12      30.20F
SPIRIT OF STL  CLOUDY    42  33  70 SE9       30.18S
ST CHARLES     CLOUDY    40  34  79 SE14      30.19F

$$
MOZ072>076-082>087-097>100-106>115-211700-
...SOUTH CENTRAL AND SOUTHEAST MISSOURI...

CITY           SKY/WX    TMP DP  RH WIND       PRES   REMARKS
CAPE GIRARDEAU CLOUDY    38  31  76 E5        30.24S
FARMINGTON     CLOUDY    39  34  81 E7        30.20F
POPLAR BLUFF   CLOUDY    39  29  67 VRB3      30.22S
WEST PLAINS    CLOUDY    38  34  85 SE6       30.16R

$$



USA.gov is the U.S. government's official web portal to all federal, state and local government web resources and services.